CW1490 Weather Reports


Display with metric or nautical units.
time (UTC)temp
F
wind
direction
speed
MPH
gust
MPH
rain 1hr
in
rain 24hr
in
rain mn
in
humidity
%
barometer
mb
20150731171230 82 285 2.0 13.0 0.00 0.04 0.01 52 1007.8
20150731165730 84 242 3.0 12.0 0.00 0.04 0.01 45 1007.9
20150731164229 83 1 4.0 9.0 0.00 0.04 0.01 47 1007.8
20150731162728 85 350 5.0 12.0 0.00 0.04 0.01 48 1007.9
20150731161224 85 274 3.0 13.0 0.00 0.04 0.01 47 1007.8
20150731155722 84 269 5.0 14.0 0.00 0.04 0.01 43 1007.8
20150731154220 84 263 3.0 8.0 0.00 0.04 0.01 46 1007.9
20150731152716 83 229 4.0 10.0 0.00 0.04 0.01 46 1007.9
20150731151213 82 14 3.0 9.0 0.00 0.04 0.01 48 1007.9
20150731145710 81 285 3.0 6.0 0.00 0.04 0.01 51 1008.1
20150731144207 81 292 3.0 15.0 0.00 0.04 0.01 52 1008.2
20150731142703 80 345 1.0 11.0 0.00 0.04 0.01 61 1008.1
20150731141159 80 286 4.0 11.0 0.00 0.04 0.01 60 1008.2
20150731135655 79 249 4.0 14.0 0.00 0.04 0.01 65 1008.1
20150731134352 79 261 3.0 9.0 0.00 0.04 0.01 66 1008.1
20150731132648 77 235 4.0 13.0 0.00 0.04 0.01 70 1008.2
20150731131143 76 217 4.0 11.0 0.00 0.04 0.01 74 1008.2
20150731125638 72 228 1.0 3.0 0.00 0.04 0.01 89 1008.4
20150731124134 70 115 0.0 4.0 0.00 0.04 0.01 93 1008.5
20150731122630 68 195 2.0 5.0 0.00 0.04 0.01 97 1008.5
20150731121125 66 233 2.0 4.0 0.00 0.04 0.01 98 1008.7
20150731115622 65 224 2.0 4.0 0.00 0.04 0.01 98 1008.6
20150731114122 64 228 1.0 4.0 0.00 0.04 0.01 98 1008.7
20150731112620 64 211 2.0 5.0 0.00 0.04 0.01 98 1008.6
20150731111118 63 237 0.0 0.0 0.00 0.04 0.01 98 1008.6
20150731105615 62 237 0.0 0.0 0.00 0.04 0.01 98 1008.4
20150731104115 62 237 0.0 0.0 0.00 0.04 0.01 97 1008.3
20150731102613 62 245 0.0 0.0 0.00 0.04 0.01 98 1008.4
20150731101111 61 245 0.0 0.0 0.00 0.04 0.01 97 1008.2
20150731095609 60 253 0.0 0.0 0.00 0.04 0.01 97 1008.1
20150731094108 61 253 0.0 0.0 0.00 0.04 0.01 97 1008.2
20150731092608 61 232 0.0 0.0 0.00 0.04 0.01 97 1008.1
20150731091107 61 234 0.0 0.0 0.00 0.04 0.01 97 1008.1
20150731085606 60 234 0.0 0.0 0.00 0.04 0.01 97 1008.1
20150731084106 60 238 0.0 0.0 0.00 0.04 0.01 97 1007.9
20150731082605 60 238 0.0 0.0 0.00 0.04 0.01 97 1007.7
20150731081104 60 233 0.0 0.0 0.00 0.04 0.01 97 1007.8
20150731075602 60 240 0.0 0.0 0.00 0.04 0.01 97 1007.9
20150731074101 60 241 0.0 0.0 0.00 0.04 0.01 97 1008.1
20150731072600 60 241 0.0 0.0 0.00 0.04 0.01 97 1008.2
20150731071058 61 219 0.0 0.0 0.00 0.04 0.01 97 1008.2
20150731065556 61 219 0.0 0.0 0.01 0.04 0.01 97 1008.2
20150731064056 61 257 0.0 0.0 0.01 0.04 0.01 97 1008.1
20150731062754 61 257 0.0 0.0 0.01 0.04 0.01 97 1008.0
20150731061053 62 258 0.0 3.0 0.01 0.04 0.01 97 1007.9
20150731055552 62 258 0.0 4.0 0.00 0.03 0.00 97 1008.0
20150731054053 62 296 0.0 3.0 0.00 0.03 0.00 96 1008.0
20150731052548 63 321 0.0 2.0 0.00 0.03 0.00 97 1007.9
20150731051047 63 334 0.0 2.0 0.00 0.03 0.00 96 1008.1
20150731045544 64 2 1.0 3.0 0.00 0.03 0.00 96 1008.1
20150731044043 64 244 0.0 1.0 0.00 0.03 0.00 96 1008.1
20150731042541 65 260 0.0 3.0 0.00 0.03 0.00 96 1008.1
20150731041038 65 301 0.0 3.0 0.00 0.03 0.00 95 1008.1
20150731035536 66 41 0.0 2.0 0.00 0.03 0.03 94 1008.1
20150731034036 67 41 0.0 2.0 0.00 0.03 0.03 93 1008.1
20150731032535 68 41 0.0 3.0 0.00 0.03 0.03 93 1008.0
20150731031035 68 174 1.0 4.0 0.00 0.03 0.03 93 1008.0
20150731025535 69 328 0.0 5.0 0.00 0.03 0.03 94 1007.8
20150731024033 69 213 2.0 6.0 0.00 0.03 0.03 93 1007.9
20150731022533 70 219 2.0 5.0 0.00 0.03 0.03 93 1008.0
20150731021032 70 179 3.0 5.0 0.00 0.03 0.03 95 1007.9
20150731015532 71 234 3.0 6.0 0.00 0.03 0.03 95 1008.1
20150731014032 72 263 0.0 4.0 0.00 0.03 0.03 96 1008.0
20150731012531 72 248 2.0 5.0 0.00 0.03 0.03 95 1007.9
20150731011031 72 230 2.0 4.0 0.00 0.03 0.03 95 1007.7
20150731005530 73 231 1.0 4.0 0.00 0.03 0.03 95 1007.3
20150731004030 74 230 0.0 0.0 0.00 0.03 0.03 94 1007.2
20150731002529 75 230 0.0 0.0 0.00 0.03 0.03 93 1007.1
20150731001029 76 230 0.0 5.0 0.00 0.03 0.03 92 1007.0
20150730235529 77 219 4.0 6.0 0.00 0.03 0.03 91 1006.8
20150730234028 77 233 3.0 5.0 0.00 0.03 0.03 90 1006.6
20150730232527 78 182 0.0 4.0 0.00 0.03 0.03 89 1006.6
20150730231127 78 236 2.0 6.0 0.00 0.03 0.03 88 1006.5
20150730225527 78 206 3.0 6.0 0.00 0.03 0.03 88 1006.6
20150730224026 78 197 3.0 9.0 0.00 0.03 0.03 87 1006.6
20150730222525 79 222 4.0 9.0 0.00 0.03 0.03 86 1006.5
20150730221025 80 228 2.0 6.0 0.00 0.03 0.03 85 1006.3
20150730215524 80 223 3.0 6.0 0.00 0.03 0.03 86 1006.2
20150730214024 79 211 3.0 7.0 0.00 0.03 0.03 88 1006.1
20150730212522 80 208 3.0 9.0 0.02 0.03 0.03 88 1006.0
20150730211023 80 249 5.0 14.0 0.02 0.03 0.03 87 1005.8
20150730205522 80 242 6.0 10.0 0.02 0.03 0.03 88 1005.8
20150730204022 79 241 3.0 7.0 0.03 0.03 0.03 89 1006.2
20150730202521 80 251 3.0 7.0 0.01 0.01 0.01 85 1005.9
20150730201020 80 241 3.0 8.0 0.01 0.01 0.01 85 1005.7
20150730195519 81 226 4.0 9.0 0.01 0.01 0.01 83 1005.8
20150730194017 81 233 4.0 9.0 0.00 0.00 0.00 85 1006.1
20150730192514 82 242 3.0 6.0 0.00 0.00 0.00 82 1006.5
20150730191014 83 222 3.0 7.0 0.00 0.00 0.00 77 1006.6
20150730185513 84 220 4.0 10.0 0.00 0.00 0.00 73 1006.5
20150730184011 84 228 6.0 13.0 0.00 0.00 0.00 72 1006.7
20150730182510 85 238 7.0 15.0 0.00 0.00 0.00 70 1006.8
20150730181008 86 222 8.0 14.0 0.00 0.00 0.00 70 1006.9
20150730175506 86 183 4.0 15.0 0.00 0.00 0.00 73 1007.1
20150730174006 86 228 7.0 19.0 0.00 0.00 0.00 71 1007.1